Location: Unspecified
(0.0000°N, 0.0000°E)
Time: 12:10:04
(UTC+00:00)

COSMOS-2414 - Pass Details

Date: 27 April 2024
Orbit: 908 x 965 km, 83.0° (Epoch: 25 May)

Event Time Altitude Azimuth Distance (km) Brightness Sun altitude
Exits shadow 04:15:21 53° 290° (WNW) 1,112 5.9 -24.8°
Drops below altitude 10° 04:20:37 10° 349° (N) 2,583 8.3 -23.5°
Sets 04:23:07 0° 354° (N) 3,520 9.0 -22.9°
